EHI
0 0 0 0 0 0 0 0 0 0 0 0 0 0 0 0 0 0 0 1 2 2 3 3 3 3 3 3 3 3 3 3 3 3 4 4 4 3 3 3 3 3 3 2 1 1 2 3 3
0 0 0 0 0 0 0 0 0 0 0 0 0 0 0 0 0 0 0 1 2 2 3 3 3 3 3 3 3 3 3 2 3 3 3 3 3 3 3 3 3 2 2 2 1 1 2 3 3
0 0 0 0 0 0 0 0 0 0 0 0 0 0 0 0 0 0 0 1 2 2 3 3 3 3 3 3 3 3 3 3 3 3 3 3 2 3 3 3 2 1 1 1 0 0 1 1 2
0 0 0 0 0 0 0 0 0 0 0 0 0 0 0 0 0 0 0 2 4 3 3 3 3 3 3 3 3 3 3 3 3 3 3 3 3 3 3 3 2 1 0 0 0 1 1 1 2
0 0 0 0 0 0 0 1 1 1 0 0 0 0 0 1 2 1 1 4 6 4 3 3 3 3 3 3 3 3 3 3 3 2 2 2 2 2 2 2 2 1 0 0 0 1 2 2 3
0 0 0 0 0 0 0 1 2 1 0 0 0 0 0 2 4 2 1 4 5 4 3 3 3 3 3 3 3 3 3 3 2 1 1 1 1 1 1 1 1 0 0 0 0 1 1 1 2
0 0 0 0 0 0 0 1 1 1 0 0 0 0 0 3 5 3 0 1 2 2 3 3 3 3 3 3 3 3 3 3 2 1 0 0 0 0 0 0 0 0 0 0 0 0 0 1 2
0 0 0 0 0 0 0 0 0 0 0 0 0 0 1 6 9 4 0 0 0 1 2 3 3 3 3 3 3 3 3 2 1 0 0 0 0 0 0 0 0 0 0 0 0 0 0 1 2
0 0 0 0 0 0 1 0 0 0 0 2 7 9 6 9 13 6 0 0 0 0 1 3 3 3 3 3 3 2 1 1 0 0 0 0 0 0 0 0 0 0 0 0 0 0 0 0 1
0 0 0 0 0 0 0 0 0 0 0 6 21 26 13 7 10 5 1 0 0 0 1 2 3 3 3 3 3 1 0 0 0 0 0 0 0 0 0 0 0 0 0 0 0 0 0 0 0
0 0 0 0 0 0 0 0 0 0 0 6 25 35 21 8 7 4 1 0 0 0 0 1 2 3 3 3 2 1 0 0 0 0 0 0 0 0 0 0 0 0 0 0 0 0 0 0 0
0 0 0 0 0 0 0 0 0 0 0 3 20 39 39 22 12 11 8 3 0 0 0 1 2 3 3 2 1 0 0 0 0 0 0 0 0 0 0 0 0 0 0 0 0 0 0 0 0
0 0 0 0 0 0 0 0 0 0 0 1 16 46 56 42 34 38 34 19 7 3 4 5 4 3 3 2 0 0 0 0 0 0 0 0 0 0 0 0 0 0 0 0 0 0 0 0 0
0 0 0 0 0 0 0 0 0 0 0 1 16 44 56 55 63 72 65 43 20 11 16 21 13 6 4 2 0 0 0 0 0 0 0 0 0 0 0 0 0 0 0 0 0 0 0 0 0
0 0 0 0 0 0 0 0 0 1 0 1 12 28 40 54 73 81 73 51 30 24 39 49 36 18 9 3 0 0 0 0 0 0 0 0 0 0 0 0 0 0 0 0 0 0 0 0 0
0 0 0 0 0 0 0 0 2 3 2 1 6 11 18 35 54 60 52 37 30 42 63 73 62 36 14 4 1 0 0 0 0 0 0 0 0 0 0 0 0 0 0 0 0 0 0 0 0
0 0 0 0 0 0 0 1 6 11 9 6 4 3 4 12 23 28 25 19 24 47 73 82 73 49 21 6 2 2 1 0 0 0 0 0 0 0 0 0 0 0 0 0 0 0 0 0 0
0 0 0 0 0 0 0 3 11 18 18 13 7 2 0 1 4 6 9 13 24 47 74 85 80 64 40 17 6 4 1 0 0 0 0 0 0 0 0 0 0 0 0 0 0 0 0 0 0
0 0 0 0 0 0 0 3 9 13 14 12 7 2 0 0 0 0 4 19 42 64 80 89 87 80 60 31 12 4 1 0 0 0 0 0 0 0 0 0 0 0 0 0 0 0 0 0 0
0 0 0 0 0 0 0 1 2 4 4 4 3 1 0 0 0 0 7 32 64 81 86 89 87 77 57 32 11 3 1 0 0 0 0 0 0 0 0 0 0 0 0 0 0 0 0 0 0
0 0 0 0 0 0 0 0 0 0 0 0 0 0 0 0 2 5 17 48 75 82 79 77 73 61 40 18 6 1 0 0 0 0 0 0 0 0 0 0 0 0 0 0 0 0 0 0 0
0 0 0 0 0 0 0 0 0 0 0 0 0 3 8 14 20 26 37 57 68 65 59 51 47 40 22 6 1 1 0 0 0 0 0 0 0 0 0 0 0 0 0 0 0 0 0 0 0
0 0 0 0 0 0 0 0 0 0 0 0 1 6 17 27 36 38 39 43 40 33 29 24 18 14 7 1 0 0 0 0 0 0 0 0 0 0 0 1 1 0 0 0 0 0 0 0 0
0 0 0 0 0 0 0 0 0 0 0 0 1 5 13 19 22 21 17 15 11 8 7 6 3 1 0 0 0 0 0 0 0 0 0 0 0 0 0 1 1 0 0 0 0 0 0 0 0
0 0 0 0 0 0 0 0 0 0 0 0 0 1 3 3 3 2 1 0 0 0 0 0 0 0 0 0 0 0 0 0 0 0 0 0 0 0 0 1 1 0 0 0 0 0 0 0 0
0 0 0 0 0 0 0 0 0 0 0 0 0 0 0 0 0 0 0 0 0 0 0 0 0 0 0 0 0 0 0 0 0 0 0 0 0 0 0 0 0 0 0 0 0 0 0 0 0
0 0 0 0 0 0 0 0 0 0 0 0 0 0 0 0 0 0 0 0 0 0 0 0 0 0 0 0 0 0 0 0 0 0 0 0 0 0 0 0 0 0 0 0 0 0 0 0 0
0 0 0 0 0 0 0 0 0 0 0 0 0 0 0 0 0 0 0 0 0 0 0 0 0 0 0 0 0 0 0 0 0 0 0 0 0 0 0 0 0 0 0 0 0 0 0 0 0
0 0 0 0 0 0 0 0 0 0 0 0 0 0 0 0 0 0 0 0 0 0 0 0 0 0 0 0 0 0 0 0 0 0 0 0 0 0 0 0 0 0 0 0 0 0 0 0 0
0 0 0 0 0 0 0 0 0 0 0 0 0 0 0 0 0 0 0 0 0 0 0 0 0 0 0 0 0 0 0 0 0 0 0 0 0 0 0 0 0 0 0 0 0 0 0 0 0
Wind_Speed
4 4 1 2 3 3 0 4 5 2 4 13 10 13 12 10 6 7 8 13 15 10 8 12 15 15 15 15 15 14 13 13 14 15 14 15 16 17 16 15 14 14 12 12 12 11 11 13 12
2 2 2 2 2 2 3 6 3 8 2 4 7 9 13 10 10 13 11 14 13 10 6 8 15 14 14 15 14 13 12 12 12 12 12 13 14 15 14 14 13 13 12 12 11 10 11 12 11
1 1 2 1 2 4 6 10 12 10 6 8 4 7 9 9 13 11 14 15 13 9 5 8 15 15 15 15 13 11 11 11 11 11 11 11 11 11 11 11 11 11 11 11 10 10 10 10 10
1 2 2 1 3 5 10 12 0 14 15 8 4 7 6 7 9 15 18 16 13 9 5 10 14 14 15 14 13 12 11 11 11 10 10 10 10 10 10 10 10 9 9 10 10 10 10 10 9
1 2 1 1 2 6 7 7 14 17 12 15 6 7 5 7 18 20 18 16 14 9 6 9 13 13 13 13 12 12 12 11 11 11 10 10 9 9 9 9 9 9 10 10 10 10 9 9 9
2 2 1 1 4 6 2 15 19 22 7 13 10 6 5 14 19 17 16 14 13 10 7 7 12 13 13 13 12 10 11 11 11 11 11 10 8 7 7 8 9 8 9 10 10 10 9 8 8
2 2 2 2 4 5 7 14 14 18 10 6 7 5 7 12 14 15 14 14 12 10 8 6 6 9 12 11 12 11 10 9 9 9 9 8 8 7 6 6 7 8 8 8 8 9 9 8 7
4 3 1 2 3 6 12 14 13 13 14 9 8 8 11 13 17 15 13 12 10 8 7 7 6 6 5 6 8 10 11 9 9 9 8 7 6 6 6 5 5 7 7 8 8 9 10 9 9
2 2 1 2 1 2 8 16 9 6 13 14 4 8 16 17 18 15 12 9 9 8 7 6 7 7 6 5 8 9 10 10 9 8 8 6 3 3 4 5 7 7 8 8 8 9 9 9 9
3 4 5 3 5 4 7 14 12 9 10 3 2 6 14 20 19 16 15 12 10 10 9 8 8 8 7 6 5 5 5 5 5 5 4 3 3 4 5 6 9 9 9 9 10 9 8 6 3
3 5 2 7 7 7 6 13 11 15 12 9 13 16 15 18 18 19 18 17 14 12 11 9 9 9 8 6 5 4 3 3 4 5 5 4 3 3 3 2 3 3 5 3 4 5 4 3 3
3 10 6 10 6 6 1 10 17 14 18 16 13 14 12 13 17 18 16 14 13 13 12 11 11 9 8 7 6 5 4 4 4 5 5 4 3 3 3 2 3 2 2 2 2 3 4 5 5
4 12 9 9 5 3 3 8 11 6 10 15 15 12 17 22 20 16 15 13 12 11 11 11 11 9 8 6 6 6 7 7 6 5 5 5 4 3 3 3 3 2 2 2 3 4 4 4 5
7 9 8 5 3 2 7 7 7 6 10 14 17 16 17 15 12 13 14 12 9 8 8 9 9 9 8 6 6 7 7 6 6 5 5 6 4 3 3 3 3 3 4 5 4 4 3 3 2
5 4 4 2 2 3 6 4 6 14 13 15 15 11 6 4 6 9 12 12 12 10 9 11 10 9 8 6 5 4 6 6 5 4 5 6 5 5 4 4 3 4 4 3 2 2 1 1 1
5 3 4 6 4 4 5 6 8 18 17 16 14 8 6 5 5 6 9 11 12 12 11 11 10 8 7 7 6 4 4 4 3 3 4 5 6 6 5 4 3 2 3 3 2 2 1 1 2
4 1 5 7 8 6 5 6 11 19 18 15 13 11 10 7 6 7 9 10 8 9 10 9 9 8 8 6 5 3 4 4 4 4 4 5 6 6 5 4 4 4 4 2 2 2 1 1 2
2 3 4 4 7 5 9 6 13 16 18 18 15 13 14 13 11 5 3 4 5 7 8 8 9 8 6 4 2 1 2 2 3 4 4 4 4 4 5 4 3 4 3 2 2 2 2 2 2
2 2 2 3 5 6 5 7 11 16 15 15 15 15 16 15 9 3 3 3 5 9 10 12 12 9 6 3 2 2 2 2 2 3 4 4 3 3 5 3 3 3 4 5 5 3 2 2 1
4 3 4 6 10 8 6 4 3 13 19 21 19 16 17 13 10 10 7 6 10 13 12 8 8 8 6 3 2 2 2 2 2 2 4 5 5 4 5 5 4 4 3 4 4 3 2 2 3
4 3 3 4 6 5 5 5 4 5 6 16 20 22 19 17 16 14 12 12 11 10 8 8 10 10 6 2 2 2 1 1 1 1 3 5 6 7 6 5 4 3 3 4 4 4 4 3 3
1 4 6 6 5 2 4 3 4 1 4 2 10 16 18 17 15 14 15 11 11 9 8 8 7 8 11 0 2 3 3 3 3 2 3 3 4 6 6 5 5 3 2 3 4 4 3 3 2
3 4 5 3 2 0 1 1 5 8 8 12 12 10 12 12 7 4 2 4 6 7 7 4 5 8 8 4 2 1 1 1 1 1 1 1 1 2 3 4 5 4 3 3 4 3 3 3 3
2 4 6 4 3 1 3 3 3 4 6 14 13 6 5 7 11 12 11 10 9 6 5 6 6 3 2 1 2 2 4 2 2 2 2 1 2 3 4 4 3 2 2 3 4 4 4 4 2
3 4 3 5 2 4 4 2 2 3 4 6 8 11 14 15 14 11 12 12 12 10 6 1 5 1 2 2 3 2 3 4 4 3 3 3 2 2 2 2 1 1 1 2 3 3 4 3 3
1 5 6 4 3 3 4 2 3 1 2 3 4 8 9 13 11 10 6 1 8 12 10 6 6 4 3 4 4 5 4 3 3 3 3 3 2 1 1 2 2 2 2 3 2 2 4 3 4
4 2 3 5 2 1 3 3 1 6 7 5 9 11 9 12 7 8 9 5 4 7 8 7 8 6 3 4 5 3 4 4 4 5 4 2 2 1 1 1 2 2 3 2 1 2 4 4 3
2 4 2 2 4 3 1 1 1 6 10 8 2 7 6 9 12 7 2 6 2 3 4 5 5 6 5 5 5 3 3 3 4 4 4 3 1 1 0 1 2 3 4 5 3 2 4 3 3
5 3 2 3 3 3 3 2 1 1 3 5 6 3 1 2 10 11 4 1 4 2 4 8 7 6 5 4 2 3 3 3 4 4 3 3 2 2 2 3 3 4 3 3 2 3 4 1 2
6 5 3 3 3 3 4 2 2 2 3 6 6 5 7 9 9 9 5 4 5 4 3 5 7 6 5 5 3 2 3 4 4 4 4 4 3 3 3 3 3 3 2 2 2 2 2 3 2
Wind_Direction
274 277 110 15 27 63 28 265 253 290 17 44 57 91 91 62 84 115 124 127 126 131 137 133 128 129 132 134 134 136 135 130 129 129 128 125 122 123 124 119 116 114 110 106 106 107 104 115 118
313 328 82 58 96 138 241 254 203 249 248 23 55 72 64 58 75 111 118 127 124 120 118 126 124 126 130 135 138 137 136 136 137 135 135 134 132 130 127 124 123 123 119 116 116 118 115 118 119
251 123 89 97 146 190 192 227 215 244 325 329 2 58 77 108 126 125 132 131 119 110 109 123 124 122 122 126 134 137 139 140 142 144 143 141 139 135 130 129 129 129 130 130 130 130 129 126 125
317 61 40 125 222 210 193 209 119 16 351 327 47 53 81 125 116 126 133 127 116 110 102 117 121 118 118 120 125 125 124 132 140 149 155 153 151 149 143 141 144 145 144 143 143 144 145 142 137
64 86 54 272 255 223 225 119 94 76 15 350 10 71 49 77 115 129 131 124 121 115 108 117 122 123 123 124 125 127 126 127 131 137 146 151 154 159 159 157 160 162 162 159 155 159 160 158 156
41 79 80 297 298 277 117 125 116 100 90 309 326 66 59 119 124 129 127 123 123 118 108 114 125 129 136 134 129 128 133 133 132 130 134 137 136 143 155 163 168 175 176 176 176 176 174 175 174
137 104 216 271 286 271 122 128 139 123 81 318 287 106 119 131 133 129 126 126 128 127 123 118 126 137 139 141 147 146 138 141 140 140 142 143 146 147 149 157 169 179 189 192 195 195 194 195 195
150 117 266 310 283 279 125 126 135 122 129 222 234 153 161 149 140 130 128 129 131 133 136 138 143 133 136 145 146 150 152 159 157 158 160 162 164 166 170 176 185 183 192 205 211 214 217 212 207
108 84 225 243 317 32 127 126 143 141 158 201 191 164 154 140 140 133 131 138 145 151 154 154 156 153 158 164 165 163 165 174 176 177 179 177 186 198 194 191 204 200 201 208 216 221 227 228 224
136 187 211 238 322 316 158 137 152 154 178 173 95 148 154 142 146 149 151 160 168 166 165 174 175 169 169 174 163 170 178 180 189 193 200 194 205 224 219 206 211 211 214 212 213 219 225 229 234
194 217 260 295 297 300 127 134 147 152 188 192 168 161 166 150 157 165 162 168 173 169 170 182 187 177 179 178 168 177 183 181 198 208 211 208 215 229 232 208 205 202 224 226 227 224 226 225 222
252 272 253 264 278 280 174 130 145 172 191 183 172 164 163 160 166 166 163 164 165 169 178 185 187 183 186 176 177 182 182 184 199 217 211 202 204 207 215 192 199 187 221 223 223 233 233 231 228
234 264 256 241 257 270 98 121 143 212 180 176 177 176 169 176 170 159 150 148 150 161 171 177 182 176 178 175 179 186 189 191 197 203 203 189 179 191 208 198 208 213 210 223 221 217 229 238 244
249 255 267 263 260 171 124 141 117 198 177 171 174 178 181 175 144 131 144 138 145 161 164 160 176 175 175 179 184 187 191 187 186 190 202 186 166 158 169 164 201 218 214 212 207 203 208 234 242
273 269 316 340 308 210 143 198 168 168 175 172 177 173 175 121 105 134 152 156 160 175 172 161 171 175 176 169 172 179 174 175 185 192 190 177 171 168 169 167 190 194 192 193 180 185 174 178 238
338 8 315 297 314 268 182 244 165 163 172 176 171 165 176 161 169 169 165 173 177 175 178 169 169 171 174 174 169 178 162 161 182 197 188 188 183 174 172 178 182 176 141 142 168 190 206 237 257
1 291 277 293 284 254 186 224 173 166 167 175 179 176 190 195 199 199 189 184 185 180 177 173 166 170 172 183 176 169 159 163 186 200 202 206 202 180 171 181 170 159 148 157 178 199 201 217 247
277 289 260 258 292 247 170 182 166 170 169 173 184 188 199 198 207 226 218 192 181 170 159 169 162 160 158 159 161 172 157 182 193 206 207 217 220 192 168 169 168 157 159 185 205 196 211 203 216
257 263 289 296 335 22 144 146 165 176 178 172 182 190 203 209 212 233 248 219 154 152 157 173 158 146 134 142 158 176 193 182 192 206 217 219 230 209 167 160 171 170 174 191 204 188 202 220 190
10 9 340 330 352 12 38 61 89 170 179 179 181 194 206 217 222 217 212 206 164 169 166 156 134 142 148 163 182 180 196 177 169 193 222 215 198 190 167 170 181 183 168 186 202 181 179 224 212
352 357 357 349 353 17 21 359 23 57 163 186 190 198 204 209 206 208 207 205 163 166 152 142 164 157 135 201 166 127 56 67 116 219 228 213 192 187 179 190 190 184 180 199 211 201 188 207 238
321 38 35 33 37 348 26 324 315 117 57 47 211 205 205 210 202 194 199 192 163 156 140 164 168 118 96 29 243 149 157 186 202 201 227 236 206 192 188 190 183 182 192 217 221 209 187 177 221
226 80 61 52 80 291 332 168 300 11 10 345 311 233 211 203 180 145 139 144 128 136 132 130 81 87 109 161 213 96 131 203 192 176 208 212 200 189 151 175 167 166 184 215 232 214 194 191 189
169 77 31 26 68 243 225 179 313 11 333 328 337 336 343 28 53 71 70 69 66 60 64 66 65 54 86 70 26 107 105 145 138 148 168 133 101 84 77 77 120 154 202 220 231 231 206 207 176
96 87 22 356 22 248 269 179 139 318 340 318 336 15 33 45 36 50 70 69 59 26 8 49 104 40 49 81 50 52 96 108 89 92 121 122 107 88 61 43 22 271 261 260 245 230 224 217 152
251 142 162 189 210 283 302 190 149 331 317 340 53 72 67 55 20 354 338 149 158 170 179 180 144 148 123 98 51 30 51 97 97 82 99 110 114 100 20 354 326 302 278 267 258 236 241 231 182
329 64 138 124 149 258 244 175 183 14 9 34 76 70 58 77 59 17 338 306 157 155 164 164 150 139 117 83 81 53 59 77 95 100 99 99 97 90 63 29 337 359 18 2 298 262 263 241 206
182 139 104 116 165 222 233 173 240 15 355 355 85 135 160 142 128 118 21 319 329 142 130 119 126 131 124 114 109 106 89 87 98 100 108 113 79 356 212 59 350 4 24 25 26 351 304 260 229
128 103 111 155 152 188 210 209 67 27 317 337 342 356 310 161 121 118 119 23 18 42 118 120 113 107 101 99 111 125 124 106 88 90 94 91 66 36 37 34 26 14 1 349 338 344 350 304 227
108 119 127 138 223 166 176 203 353 287 10 24 357 358 4 9 32 61 63 55 44 19 81 106 107 106 109 103 99 126 131 97 97 104 107 103 84 67 54 39 40 26 20 24 14 355 356 33 29